ARABSAT-6A

Last updated on Thu Jul 03 2025 00:02:48 GMT+0000 (Coordinated Universal Time)

1 44186U 19021A 25183.57265992 .00000160 00000+0 00000+0 0 9995 2 44186 0.0524 334.7786 0001145 151.3092 31.3366 1.00256934 22653
UTC large
Height (km)
Speed (km/s)
/
Latitude / Longitude
Inclination (degrees)
Orbital Period (minutes)
Azimuth
Elevation
Range (km)
Doppler Factor

Next 0 passes for location: London (51.5072 / 0.1276)

Sorry there are no passes over London.